Location: *
(23.8961°S, 59.2193°W)
Time: 09:41:58
(UTC+00:00)

Daily predictions for brighter satellites

Satellite Brightness Start Highest point End
(mag) Time Altitude Azimuth Time Altitude Azimuth Time Altitude Azimuth
Yuri Rocket 3.3 23:02:38 10° WSW 23:06:56 78° SSE 23:12:14 10° ENE
ATLAS 3B R/B 3.1 23:00:21 10° SSW 23:07:25 53° ESE 23:14:09 10° NE
Delta 198 3.4 23:07:53 10° WNW 23:11:25 47° NNE 23:15:16 10° E
Meteor 2-10 Rocket 3.9 23:08:48 10° NNE 23:13:25 38° E 23:18:05 10° SSE
CZ-2C R/B 4.1 23:10:27 10° N 23:14:57 70° WNW 23:19:36 10° SSW
In-Cosmos 22 Rocket 4.4 23:11:00 10° S 23:16:47 59° E 23:22:30 10° NNE
Cosmos 2221 4.4 23:20:33 10° ENE 23:22:22 12° E 23:24:12 10° ESE
Cosmos 494 Rocket 4.1 23:19:22 10° N 23:24:22 53° ENE 23:29:27 10° SSE
Cosmos 1455 2.1 23:21:54 10° N 23:25:37 69° E 23:29:23 10° S
SEDSat Delta rocket 3.7 23:21:28 10° WSW 23:26:42 77° SSE 23:32:22 12° ENE
Cosmos-2242 3.2 23:24:36 10° N 23:28:51 75° W 23:33:08 10° S
Cosmos 2237 Rocket 3.1 23:25:52 10° NNE 23:30:30 27° ENE 23:35:10 10° SE
Cosmos 2333 Rocket 2.3 23:25:44 10° NNW 23:31:22 82° WSW 23:37:03 10° SSE
CENTAUR R/B 2.6 23:27:07 10° SW 23:32:25 59° WNW 23:37:34 10° NNE
Cosmos 2151 3.6 23:30:02 10° SSE 23:33:59 36° E 23:37:41 11° NNE
CZ-4 R/B 3.4 23:30:40 10° SSW 23:34:09 32° WSW 23:37:39 10° NW
Okean 3 Rocket 4.0 23:30:38 10° SSE 23:34:49 41° E 23:38:57 10° NNE
Cosmos 1461 3.5 23:31:16 10° N 23:35:39 41° ENE 23:40:02 10° SE
Cosmos 1452 Rocket 3.9 23:30:41 10° S 23:35:46 45° ESE 23:40:25 12° NE
USA 234 4.1 23:32:35 10° ESE 23:37:56 27° ENE 23:43:15 10° N
Genesis I 3.2 23:34:48 10° SSW 23:38:47 87° WNW 23:42:33 11° NNE
ATLAS 3B CENTAUR R/B 3.2 23:35:26 10° N 23:38:49 23° NE 23:44:51 10° E
Cosmos 1934 Rocket 4.1 23:34:26 10° S 23:40:48 87° W 23:47:00 10° N
Cosmos 2084 Rocket 3.9 23:39:16 10° NW 23:43:35 66° WSW 23:47:54 10° SSE
GPS 2-15 Rocket1 3.5 23:40:16 10° WNW 23:45:05 51° N 23:48:27 19° ENE
Cosmos 1408 3.1 23:43:05 10° SSE 23:46:27 36° E 23:48:23 20° NE
Cosmos 2263 Rocket 4.5 23:45:53 10° SW 23:50:07 22° W 23:54:19 10° NNW
H-2A R/B 2.6 23:44:46 10° W 23:51:46 41° SSW 23:54:07 10° SE
Cosmos 1892 3.0 23:49:33 10° S 23:53:25 69° W 23:57:15 10° N
HJ-1C 4.0 23:51:43 10° S 23:55:05 60° WSW 23:58:26 10° NNW
